When you browse on this site, cookies collect data to enhance your experience and personalize the content and advertising you see.
Visit our Privacy Policy to learn more. By continuing to use the site, you agree to this use of cookies and data.
  • En España
  • Lista de países
  • Para 7 días
  • Temperatura del agua
  • El tiempo en el mapa
  • Informadores
  • user-avatar
    Iniciar sesión

    Tiempo cada hora Lubango

    Hoy, 24 Agosto, Sábado

    Tiempo Temperatura Precipitaciones Viento Presión Humedad
    00:00 +13°C° 0 mm 3 mps 610 mmHg 28%
    01:00 +13°C° 0 mm 3 mps 610 mmHg 26%
    02:00 +12°C° 0 mm 3 mps 609 mmHg 26%
    03:00 +12°C° 0 mm 3 mps 609 mmHg 26%
    04:00 +11°C° 0 mm 4 mps 608 mmHg 26%
    05:00 +11°C° 0 mm 4 mps 609 mmHg 27%
    06:00 +12°C° 0 mm 4 mps 609 mmHg 28%
    07:00 +12°C° 0 mm 4 mps 610 mmHg 28%
    08:00 +15°C° 0 mm 4 mps 611 mmHg 24%
    09:00 +19°C° 0 mm 5 mps 612 mmHg 21%
    10:00 +22°C° 0 mm 5 mps 613 mmHg 17%
    11:00 +25°C° 0 mm 4 mps 613 mmHg 15%
    12:00 +27°C° 0 mm 4 mps 613 mmHg 13%
    13:00 +28°C° 0 mm 3 mps 613 mmHg 10%
    14:00 +28°C° 0 mm 3 mps 613 mmHg 10%
    15:00 +28°C° 0 mm 2 mps 612 mmHg 9%
    16:00 +28°C° 0 mm 2 mps 612 mmHg 8%
    17:00 +24°C° 0 mm 2 mps 611 mmHg 13%
    18:00 +20°C° 0 mm 2 mps 610 mmHg 17%
    19:00 +16°C° 0 mm 2 mps 609 mmHg 22%
    20:00 +15°C° 0 mm 2 mps 609 mmHg 24%
    21:00 +14°C° 0 mm 2 mps 609 mmHg 27%
    22:00 +14°C° 0 mm 2 mps 609 mmHg 29%
    23:00 +14°C° 0 mm 2 mps 609 mmHg 29%

    Mañana, 25 Agosto, Domingo

    Tiempo Temperatura Precipitaciones Viento Presión Humedad
    00:00 +13°C° 0 mm 2 mps 609 mmHg 29%
    01:00 +12°C° 0 mm 3 mps 609 mmHg 29%
    02:00 +12°C° 0 mm 3 mps 608 mmHg 26%
    03:00 +12°C° 0 mm 3 mps 608 mmHg 23%
    04:00 +11°C° 0 mm 3 mps 608 mmHg 21%
    05:00 +12°C° 0 mm 3 mps 608 mmHg 20%
    06:00 +12°C° 0 mm 4 mps 609 mmHg 19%
    07:00 +12°C° 0 mm 4 mps 609 mmHg 19%
    08:00 +17°C° 0 mm 4 mps 611 mmHg 16%
    09:00 +20°C° 0 mm 5 mps 612 mmHg 13%
    10:00 +25°C° 0 mm 5 mps 613 mmHg 11%
    11:00 +26°C° 0 mm 4 mps 613 mmHg 10%
    12:00 +27°C° 0 mm 3 mps 612 mmHg 9%
    13:00 +28°C° 0 mm 2 mps 612 mmHg 8%
    14:00 +28°C° 0 mm 2 mps 612 mmHg 8%
    15:00 +28°C° 0 mm 2 mps 611 mmHg 8%
    16:00 +28°C° 0 mm 2 mps 611 mmHg 9%
    17:00 +24°C° 0 mm 2 mps 610 mmHg 18%
    18:00 +19°C° 0 mm 2 mps 609 mmHg 27%
    19:00 +15°C° 0 mm 2 mps 608 mmHg 36%
    20:00 +15°C° 0 mm 2 mps 608 mmHg 36%
    21:00 +15°C° 0 mm 2 mps 609 mmHg 36%
    22:00 +14°C° 0 mm 2 mps 609 mmHg 36%
    23:00 +14°C° 0 mm 2 mps 609 mmHg 34%

    Pasado mañana, 26 Agosto, Lunes

    Tiempo Temperatura Precipitaciones Viento Presión Humedad
    00:00 +14°C° 0 mm 2 mps 609 mmHg 31%
    01:00 +14°C° 0 mm 2 mps 609 mmHg 28%
    02:00 +13°C° 0 mm 1 mps 608 mmHg 26%
    03:00 +13°C° 0 mm 1 mps 608 mmHg 24%
    04:00 +13°C° 0 mm 1 mps 608 mmHg 22%
    05:00 +14°C° 0 mm 1 mps 609 mmHg 21%
    06:00 +14°C° 0 mm 2 mps 609 mmHg 21%
    07:00 +14°C° 0 mm 2 mps 610 mmHg 21%
    08:00 +18°C° 0 mm 2 mps 611 mmHg 17%
    09:00 +21°C° 0 mm 3 mps 612 mmHg 14%
    10:00 +26°C° 0 mm 4 mps 614 mmHg 11%
    11:00 +27°C° 0 mm 3 mps 613 mmHg 10%
    12:00 +28°C° 0 mm 3 mps 613 mmHg 10%
    13:00 +29°C° 0 mm 3 mps 613 mmHg 9%
    14:00 +29°C° 0 mm 3 mps 612 mmHg 11%
    15:00 +28°C° 0 mm 3 mps 612 mmHg 13%
    16:00 +27°C° 0 mm 3 mps 611 mmHg 14%
    17:00 +23°C° 0 mm 2 mps 610 mmHg 28%
    18:00 +19°C° 0 mm 2 mps 609 mmHg 41%
    19:00 +15°C° 0 mm 2 mps 609 mmHg 54%
    20:00 +14°C° 0 mm 2 mps 609 mmHg 52%
    21:00 +14°C° 0 mm 1 mps 609 mmHg 49%
    22:00 +14°C° 0 mm 1 mps 610 mmHg 47%
    23:00 +14°C° 0 mm 1 mps 610 mmHg 41%

    27 Agosto, Martes

    Tiempo Temperatura Precipitaciones Viento Presión Humedad
    00:00 +14°C° 0 mm 2 mps 610 mmHg 35%
    01:00 +14°C° 0 mm 2 mps 610 mmHg 30%
    02:00 +14°C° 0 mm 2 mps 610 mmHg 29%
    03:00 +14°C° 0 mm 2 mps 609 mmHg 28%
    04:00 +14°C° 0 mm 2 mps 609 mmHg 27%
    05:00 +14°C° 0 mm 2 mps 610 mmHg 24%
    06:00 +15°C° 0 mm 2 mps 610 mmHg 22%
    07:00 +15°C° 0 mm 2 mps 611 mmHg 19%
    08:00 +19°C° 0 mm 3 mps 612 mmHg 16%
    09:00 +22°C° 0 mm 3 mps 613 mmHg 13%
    10:00 +26°C° 0 mm 3 mps 614 mmHg 11%
    11:00 +27°C° 0 mm 3 mps 614 mmHg 10%
    12:00 +28°C° 0 mm 3 mps 614 mmHg 10%
    13:00 +30°C° 0 mm 2 mps 613 mmHg 9%
    14:00 +29°C° 0 mm 2 mps 613 mmHg 10%
    15:00 +29°C° 0 mm 3 mps 612 mmHg 11%
    16:00 +28°C° 0 mm 3 mps 612 mmHg 12%
    17:00 +24°C° 0 mm 2 mps 610 mmHg 22%
    18:00 +20°C° 0 mm 2 mps 609 mmHg 33%
    19:00 +16°C° 0 mm 2 mps 608 mmHg 43%
    20:00 +16°C° 0 mm 2 mps 609 mmHg 40%
    21:00 +15°C° 0 mm 2 mps 609 mmHg 36%
    22:00 +15°C° 0 mm 2 mps 610 mmHg 33%
    23:00 +15°C° 0 mm 2 mps 609 mmHg 31%

    28 Agosto, Miércoles

    Tiempo Temperatura Precipitaciones Viento Presión Humedad
    00:00 +15°C° 0 mm 2 mps 609 mmHg 30%
    01:00 +15°C° 0 mm 2 mps 609 mmHg 28%
    02:00 +15°C° 0 mm 2 mps 609 mmHg 26%
    03:00 +15°C° 0 mm 2 mps 609 mmHg 25%
    04:00 +14°C° 0 mm 2 mps 609 mmHg 23%
    05:00 +15°C° 0 mm 2 mps 609 mmHg 22%
    06:00 +16°C° 0 mm 2 mps 610 mmHg 22%
    07:00 +16°C° 0 mm 2 mps 610 mmHg 21%
    08:00 +20°C° 0 mm 2 mps 611 mmHg 18%
    09:00 +24°C° 0 mm 3 mps 613 mmHg 14%
    10:00 +28°C° 0 mm 3 mps 614 mmHg 10%
    11:00 +29°C° 0 mm 3 mps 613 mmHg 10%
    12:00 +30°C° 0 mm 2 mps 613 mmHg 9%
    13:00 +31°C° 0 mm 2 mps 613 mmHg 9%
    14:00 +30°C° 0 mm 3 mps 612 mmHg 10%
    15:00 +30°C° 0 mm 3 mps 611 mmHg 11%
    16:00 +29°C° 0 mm 4 mps 611 mmHg 12%
    17:00 +25°C° 0 mm 3 mps 610 mmHg 23%
    18:00 +20°C° 0 mm 3 mps 609 mmHg 33%
    19:00 +16°C° 0 mm 2 mps 608 mmHg 44%
    20:00 +16°C° 0 mm 2 mps 608 mmHg 39%
    21:00 +15°C° 0 mm 2 mps 608 mmHg 35%
    22:00 +15°C° 0 mm 2 mps 608 mmHg 30%
    23:00 +15°C° 0 mm 2 mps 608 mmHg 26%

    29 Agosto, Jueves

    Tiempo Temperatura Precipitaciones Viento Presión Humedad
    00:00 +15°C° 0 mm 2 mps 608 mmHg 23%
    01:00 +14°C° 0 mm 2 mps 608 mmHg 19%
    02:00 +14°C° 0 mm 2 mps 608 mmHg 20%
    03:00 +14°C° 0 mm 2 mps 608 mmHg 20%
    04:00 +14°C° 0 mm 2 mps 607 mmHg 20%
    05:00 +14°C° 0 mm 2 mps 608 mmHg 19%
    06:00 +15°C° 0 mm 1 mps 608 mmHg 18%
    07:00 +15°C° 0 mm 1 mps 609 mmHg 17%
    08:00 +20°C° 0 mm 1 mps 611 mmHg 14%
    09:00 +24°C° 0 mm 2 mps 612 mmHg 11%
    10:00 +27°C° 0 mm 2 mps 614 mmHg 8%
    11:00 +28°C° 0 mm 2 mps 613 mmHg 8%
    12:00 +29°C° 0 mm 2 mps 613 mmHg 8%
    13:00 +30°C° 0 mm 2 mps 612 mmHg 8%
    14:00 +29°C° 0 mm 3 mps 611 mmHg 10%
    15:00 +29°C° 0 mm 3 mps 611 mmHg 11%
    16:00 +28°C° 0 mm 4 mps 610 mmHg 13%
    17:00 +24°C° 0 mm 3 mps 609 mmHg 21%
    18:00 +19°C° 0 mm 3 mps 608 mmHg 29%
    19:00 +15°C° 0 mm 2 mps 607 mmHg 37%
    20:00 +15°C° 0 mm 2 mps 607 mmHg 34%
    21:00 +15°C° 0 mm 2 mps 607 mmHg 30%
    22:00 +14°C° 0 mm 1 mps 608 mmHg 26%
    23:00 +14°C° 0 mm 1 mps 608 mmHg 24%
    Mostrar más